Temp
-4 -4 -4 -6 -7 -6 -5 -5 -5 -6 -7 -7 -7 -7 -7 -6 -6 -6 -6 -6 -6 -6 -6 -5 -6 -6 -6 -6 -6 -7 -6 -7 -7 -7 -7 -7 -8 -8 -8 -8 -7 -7 -8 -8
-4 -4 -5 -7 -6 -6 -6 -5 -5 -6 -6 -6 -6 -7 -7 -7 -8 -6 -6 -6 -7 -7 -6 -6 -6 -6 -6 -6 -6 -6 -6 -6 -6 -6 -6 -6 -7 -7 -7 -7 -7 -6 -6 -6
-4 -5 -4 -7 -6 -6 -6 -6 -5 -6 -6 -6 -6 -6 -7 -7 -7 -8 -6 -6 -6 -6 -7 -7 -6 -6 -6 -6 -6 -6 -6 -6 -6 -6 -6 -7 -7 -7 -7 -8 -7 -7 -3 -7
-4 -5 -6 -7 -5 -5 -6 -6 -6 -6 -6 -6 -6 -6 -7 -7 -6 -7 -6 -5 -5 -6 -6 -7 -7 -7 -7 -7 -7 -6 -6 -6 -6 -6 -6 -6 -7 -7 -7 -6 -6 -7 -7 -7
-4 -4 -5 -4 -4 -6 -6 -6 -6 -6 -6 -6 -6 -6 -6 -6 -6 -6 -7 -6 -6 -5 -7 -7 -7 -7 -7 -7 -7 -7 -7 -6 -6 -6 -6 -6 -6 -6 -6 -6 -6 -6 -7 -7
-5 -5 -5 -4 -4 -7 -7 -6 -6 -6 -6 -6 -6 -5 -5 -6 -7 -8 -7 -7 -6 -6 -6 -7 -7 -7 -7 -7 -7 -6 -6 -6 -5 -5 -5 -5 -6 -6 -6 -6 -7 -7 -7 -6
-5 -6 -5 -4 -5 -7 -6 -6 -6 -6 -6 -5 -5 -5 -6 -6 -7 -8 -7 -8 -8 -7 -6 -5 -6 -6 -6 -7 -7 -6 -6 -6 -6 -6 -6 -6 -6 -6 -6 -7 -7 -7 -7 -7
-5 -5 -4 -4 -4 -7 -4 -6 -6 -5 -5 -4 -5 -5 -6 -6 -7 -7 -7 -7 -8 -8 -7 -6 -5 -5 -5 -5 -6 -6 -6 -6 -6 -6 -6 -6 -6 -6 -7 -7 -8 -8 -8 -8
-7 -5 -7 -5 -5 -6 -5 -4 -5 -6 -5 -5 -5 -6 -6 -6 -6 -6 -6 -6 -7 -7 -7 -6 -7 -6 -7 -6 -6 -6 -5 -5 -6 -5 -5 -5 -6 -6 -7 -7 -8 -8 -8 -8
-6 -7 -7 -7 -6 -5 -7 -6 -6 -6 -5 -5 -5 -5 -6 -5 -6 -5 -5 -6 -6 -8 -7 -7 -8 -7 -5 -8 -7 -6 -5 -6 -6 -5 -6 -6 -6 -6 -6 -7 -7 -7 -7 -8
-6 -7 -6 -6 -7 -6 -7 -7 -7 -6 -5 -5 -5 -6 -6 -6 -5 -6 -6 -6 -6 -6 -8 -8 -8 -8 -8 -8 -8 -7 -5 -5 -5 -6 -6 -6 -6 -7 -7 -7 -7 -7 -8 -8
-5 -7 -6 -6 -7 -6 -7 -7 -7 -6 -6 -6 -6 -7 -7 -6 -6 -6 -6 -5 -5 -6 -6 -8 -8 -9 -7 -6 -7 -6 -6 -6 -5 -7 -6 -7 -6 -6 -7 -7 -7 -7 -8 -9
-7 -6 -7 -7 -7 -7 -6 -7 -7 -7 -7 -6 -6 -6 -6 -6 -6 -6 -6 -6 -5 -6 -6 -7 -6 -7 -8 -7 -5 -7 -5 -4 -5 -7 -6 -8 -7 -8 -7 -8 -9 -9 -9 -9
-8 -8 -6 -7 -6 -7 -7 -7 -7 -7 -7 -7 -6 -7 -7 -7 -6 -6 -6 -7 -7 -5 -6 -7 -8 -7 -5 -5 -6 -6 -7 -6 -5 -5 -7 -8 -9 -8 -9 -9 -9 -9 -9 -9
-8 -8 -8 -7 -7 -7 -7 -7 -7 -7 -7 -7 -7 -7 -8 -7 -6 -7 -7 -7 -7 -6 -6 -7 -6 -5 -7 -8 -7 -8 -7 -7 -6 -6 -7 -7 -7 -11 -10 -9 -9 -9 -10 -10
-8 -7 -8 -8 -7 -7 -7 -7 -7 -8 -7 -7 -7 -8 -7 -8 -8 -7 -8 -7 -7 -7 -7 -6 -6 -5 -6 -7 -6 -7 -8 -8 -8 -8 -8 -8 -9 -9 -9 -9 -10 -10 -10 -10
-8 -7 -8 -6 -7 -8 -7 -7 -7 -7 -7 -8 -8 -8 -8 -8 -8 -8 -8 -8 -7 -7 -7 -7 -6 -6 -6 -7 -7 -8 -8 -8 -8 -9 -9 -9 -9 -9 -10 -10 -10 -10 -11 -10
-8 -8 -7 -8 -8 -8 -6 -7 -7 -8 -8 -8 -9 -8 -8 -8 -8 -8 -8 -8 -7 -7 -7 -7 -7 -7 -7 -7 -8 -8 -7 -8 -9 -9 -10 -10 -10 -10 -10 -11 -11 -11 -11 -11
-9 -8 -8 -9 -9 -8 -8 -8 -8 -8 -8 -8 -9 -9 -8 -8 -8 -8 -8 -8 -8 -7 -7 -7 -7 -7 -8 -8 -8 -8 -9 -9 -10 -10 -10 -10 -10 -11 -11 -11 -11 -11 -11 -11
-10 -9 -9 -8 -9 -9 -8 -8 -8 -8 -8 -9 -9 -9 -8 -8 -9 -8 -8 -8 -7 -7 -7 -7 -7 -8 -8 -8 -9 -9 -9 -10 -10 -10 -11 -11 -11 -11 -11 -11 -11 -11 -11 -12
-9 -9 -9 -8 -9 -8 -9 -8 -9 -9 -8 -9 -9 -9 -8 -8 -9 -8 -8 -8 -8 -8 -8 -8 -8 -8 -8 -9 -9 -9 -10 -10 -10 -11 -11 -11 -11 -11 -11 -11 -11 -12 -12 -13
-9 -9 -9 -10 -10 -9 -9 -8 -8 -9 -9 -9 -9 -8 -9 -9 -9 -9 -8 -8 -8 -8 -8 -8 -9 -9 -9 -9 -10 -10 -10 -10 -11 -11 -11 -11 -11 -12 -12 -12 -13 -12 -13 -13
-10 -9 -9 -10 -9 -10 -9 -8 -8 -8 -9 -10 -10 -9 -9 -9 -9 -9 -9 -9 -9 -9 -9 -9 -9 -9 -9 -9 -10 -10 -10 -11 -11 -11 -11 -11 -12 -12 -13 -13 -13 -13 -13 -13
-10 -10 -10 -10 -10 -9 -10 -9 -8 -9 -9 -10 -10 -10 -10 -9 -9 -9 -10 -10 -10 -10 -10 -10 -10 -10 -10 -10 -10 -10 -11 -11 -11 -12 -12 -12 -12 -13 -13 -13 -13 -13 -13 -13
-10 -9 -10 -10 -9 -9 -9 -8 -9 -10 -10 -10 -10 -10 -9 -9 -10 -10 -10 -10 -10 -10 -10 -10 -10 -11 -11 -11 -11 -12 -12 -12 -12 -12 -12 -13 -13 -13 -13 -13 -14 -14 -14 -13
-10 -11 -10 -10 -9 -11 -9 -9 -10 -9 -9 -10 -10 -10 -10 -10 -10 -10 -10 -10 -10 -10 -10 -10 -11 -11 -11 -12 -12 -12 -12 -12 -12 -13 -13 -13 -13 -13 -13 -14 -14 -14 -14 -13
Height
5933 5934 5935 5937 5942 5949 5952 5959 5959 5956 5952 5954 5949 5947 5948 5944 5943 5943 5942 5940 5940 5939 5939 5938 5937 5937 5937 5936 5936 5936 5936 5936 5936 5936 5936 5936 5934 5932 5931 5932 5933 5927 5930 5931
5933 5934 5935 5941 5947 5946 5950 5955 5958 5956 5953 5954 5955 5951 5947 5947 5943 5944 5945 5943 5941 5940 5940 5940 5939 5939 5938 5938 5938 5937 5937 5937 5937 5937 5936 5935 5933 5931 5933 5936 5936 5909 5935 5926
5933 5935 5936 5941 5942 5945 5949 5954 5958 5956 5953 5953 5958 5956 5948 5946 5948 5943 5942 5944 5943 5942 5941 5940 5940 5940 5939 5939 5939 5939 5938 5938 5937 5937 5936 5936 5933 5932 5927 5929 5938 5932 5887 5928
5932 5934 5937 5939 5940 5943 5950 5952 5954 5955 5954 5954 5954 5957 5949 5947 5947 5945 5942 5940 5942 5943 5942 5941 5940 5939 5939 5939 5938 5938 5938 5938 5937 5936 5936 5935 5932 5930 5929 5931 5933 5926 5927 5924
5931 5932 5935 5937 5939 5942 5948 5949 5949 5950 5952 5953 5954 5956 5949 5947 5945 5946 5943 5940 5938 5939 5941 5940 5939 5938 5938 5937 5938 5938 5937 5936 5936 5935 5935 5934 5932 5928 5925 5928 5928 5926 5922 5920
5926 5930 5932 5935 5937 5939 5943 5943 5944 5945 5949 5951 5952 5956 5951 5946 5944 5943 5941 5942 5940 5936 5937 5939 5937 5936 5935 5935 5934 5934 5933 5933 5933 5932 5932 5931 5929 5926 5924 5922 5921 5921 5921 5922
5923 5927 5929 5931 5933 5937 5938 5941 5944 5946 5948 5949 5952 5954 5949 5946 5945 5945 5943 5941 5938 5938 5934 5933 5935 5932 5930 5930 5929 5929 5928 5927 5927 5926 5925 5925 5925 5924 5922 5920 5918 5916 5914 5910
5920 5922 5925 5928 5930 5936 5936 5938 5944 5948 5951 5951 5949 5951 5952 5944 5942 5944 5946 5943 5937 5936 5930 5929 5929 5930 5927 5926 5924 5924 5923 5923 5922 5923 5922 5921 5920 5919 5917 5917 5914 5912 5910 5906
5917 5919 5923 5924 5927 5931 5933 5934 5940 5944 5946 5948 5946 5945 5942 5943 5941 5939 5939 5941 5939 5930 5930 5924 5922 5926 5927 5924 5922 5920 5919 5918 5917 5916 5915 5915 5915 5914 5912 5911 5910 5908 5905 5902
5914 5920 5921 5920 5922 5925 5929 5934 5936 5938 5942 5946 5947 5941 5939 5935 5935 5934 5935 5935 5936 5932 5925 5926 5921 5916 5921 5922 5919 5915 5914 5911 5910 5909 5909 5907 5906 5904 5902 5901 5900 5898 5895 5893
5908 5914 5921 5920 5916 5920 5925 5927 5931 5938 5941 5943 5943 5935 5934 5931 5930 5933 5931 5931 5931 5931 5927 5924 5921 5915 5913 5911 5909 5909 5902 5897 5903 5905 5907 5906 5898 5894 5894 5893 5891 5889 5887 5882
5901 5906 5911 5915 5916 5917 5922 5924 5926 5931 5934 5935 5935 5929 5924 5929 5928 5929 5928 5926 5929 5928 5927 5927 5924 5909 5891 5864 5892 5898 5880 5878 5901 5889 5881 5891 5872 5881 5886 5886 5882 5880 5877 5872
5894 5897 5904 5909 5914 5911 5913 5918 5921 5924 5927 5929 5932 5927 5920 5922 5923 5924 5925 5922 5923 5924 5923 5917 5910 5896 5889 5871 5838 5888 5904 5907 5892 5884 5826 5850 5890 5881 5879 5879 5876 5871 5864 5859
5887 5890 5893 5902 5908 5911 5909 5911 5917 5921 5922 5926 5927 5920 5918 5916 5914 5914 5918 5918 5916 5920 5919 5907 5902 5894 5882 5853 5886 5888 5888 5902 5889 5895 5883 5873 5866 5872 5872 5866 5859 5856 5851 5847
5877 5879 5887 5893 5899 5907 5906 5905 5908 5913 5917 5922 5924 5920 5906 5907 5909 5910 5911 5911 5913 5911 5916 5910 5891 5889 5874 5876 5888 5881 5888 5891 5894 5891 5883 5873 5866 5863 5858 5853 5850 5846 5841 5836
5867 5872 5878 5883 5891 5895 5902 5902 5901 5905 5910 5912 5914 5907 5902 5904 5905 5904 5907 5905 5906 5905 5905 5901 5899 5893 5892 5884 5879 5876 5878 5880 5876 5873 5871 5865 5860 5852 5852 5847 5842 5837 5831 5825
5858 5865 5869 5873 5882 5888 5891 5897 5898 5900 5903 5905 5908 5902 5896 5895 5897 5900 5901 5898 5899 5898 5896 5893 5885 5887 5882 5873 5872 5871 5872 5870 5867 5864 5860 5855 5851 5847 5843 5837 5830 5824 5818 5811
5849 5857 5862 5867 5872 5873 5881 5891 5894 5895 5897 5899 5895 5891 5889 5891 5894 5897 5895 5893 5889 5889 5887 5885 5885 5879 5876 5873 5869 5868 5866 5861 5856 5852 5848 5843 5839 5835 5829 5823 5817 5812 5805 5797
5839 5848 5854 5858 5862 5869 5874 5880 5883 5887 5890 5893 5882 5879 5882 5887 5891 5887 5886 5885 5882 5879 5877 5875 5873 5871 5869 5865 5862 5857 5853 5848 5844 5840 5836 5832 5827 5822 5816 5810 5803 5797 5790 5783
5836 5839 5846 5851 5854 5859 5867 5873 5874 5879 5880 5880 5872 5871 5876 5883 5881 5878 5879 5876 5874 5871 5866 5864 5862 5859 5856 5853 5849 5846 5842 5837 5834 5829 5825 5820 5814 5808 5802 5795 5789 5782 5775 5770
5826 5830 5833 5842 5846 5852 5855 5862 5862 5864 5871 5869 5866 5868 5869 5871 5875 5871 5867 5865 5861 5858 5857 5854 5851 5848 5845 5841 5838 5834 5830 5826 5822 5817 5813 5808 5801 5795 5789 5782 5775 5770 5764 5759
5819 5826 5831 5835 5840 5845 5845 5852 5855 5855 5857 5856 5856 5857 5857 5862 5860 5858 5859 5856 5852 5849 5845 5843 5840 5837 5835 5832 5827 5823 5819 5815 5811 5806 5800 5794 5788 5782 5776 5770 5766 5760 5754 5749
5810 5816 5824 5828 5830 5836 5837 5838 5842 5844 5845 5847 5848 5849 5852 5853 5850 5850 5848 5845 5842 5840 5836 5832 5828 5826 5824 5820 5816 5812 5808 5804 5799 5793 5787 5781 5775 5770 5765 5760 5755 5750 5743 5738
5802 5808 5813 5815 5818 5821 5823 5829 5834 5833 5837 5838 5837 5842 5841 5839 5840 5839 5837 5835 5833 5829 5825 5822 5819 5815 5812 5809 5806 5801 5797 5791 5787 5781 5775 5770 5765 5760 5756 5750 5744 5739 5733 5728
5794 5796 5793 5803 5804 5809 5815 5822 5823 5826 5828 5829 5831 5831 5830 5830 5830 5828 5826 5824 5821 5817 5815 5812 5808 5804 5802 5798 5794 5792 5785 5780 5775 5769 5764 5760 5755 5751 5746 5740 5734 5729 5723 5718
5776 5785 5782 5787 5788 5799 5807 5810 5815 5819 5820 5820 5821 5821 5821 5820 5819 5819 5816 5812 5811 5808 5804 5801 5799 5794 5791 5787 5783 5779 5774 5769 5764 5760 5755 5750 5746 5741 5736 5730 5725 5718 5714 5708
Wind_Speed
10 8 12 17 11 8 15 5 10 7 5 9 13 17 29 19 8 9 12 15 17 14 12 11 12 11 9 7 8 7 9 9 9 8 8 8 7 6 5 5 6 7 11 11
10 7 10 9 7 12 21 14 11 9 7 17 13 19 26 11 11 13 7 8 11 14 15 13 11 10 10 9 7 7 6 6 6 6 5 6 6 6 7 9 7 16 13 11
12 7 8 9 14 22 12 12 8 10 12 15 10 15 24 24 11 19 18 6 6 8 11 13 13 11 10 10 9 8 7 7 7 7 8 8 9 11 16 12 15 12 8 21
13 14 10 13 14 16 7 7 10 14 12 7 8 11 25 28 27 19 25 18 10 7 9 9 11 14 13 10 9 10 10 10 10 10 11 11 12 15 15 16 13 16 16 15
12 12 15 14 12 12 11 12 18 16 16 10 16 6 24 25 25 17 16 25 22 13 9 10 8 11 13 13 11 11 11 11 12 13 14 13 13 16 19 17 16 19 22 24
17 15 15 14 15 16 14 18 20 10 9 13 11 11 13 20 19 17 15 19 24 26 17 9 10 11 12 13 14 14 14 14 13 13 14 15 16 20 23 27 28 27 27 24
20 17 17 15 16 14 16 12 3 1 5 9 13 12 11 7 13 7 14 20 26 26 22 15 16 16 13 13 15 16 16 18 19 21 22 23 23 24 25 27 29 30 32 34
24 25 21 17 14 17 15 14 12 1 6 8 16 14 20 26 25 27 25 23 27 25 31 27 17 14 17 17 18 19 18 17 19 20 21 23 24 25 26 27 29 29 29 33
21 22 19 18 18 21 16 19 19 14 11 12 16 11 20 26 33 32 23 20 27 32 27 35 40 25 19 19 17 17 18 19 21 23 24 23 24 24 25 26 25 28 29 31
22 15 18 24 21 23 19 11 18 14 12 15 15 24 23 28 29 24 20 19 21 28 35 35 42 39 28 26 23 21 18 19 22 24 23 23 25 26 27 29 32 34 37 38
29 22 18 27 29 22 22 23 21 13 10 11 15 22 24 31 34 25 24 21 21 21 31 36 36 45 37 36 29 24 27 24 30 31 29 29 27 29 30 32 35 39 42 43
34 25 25 27 26 24 23 25 19 20 25 20 18 18 27 29 30 28 29 29 20 21 25 27 37 43 52 28 19 22 36 27 40 42 39 27 38 38 40 42 39 43 47 47
32 37 24 26 26 30 28 25 19 20 24 16 21 27 33 36 34 33 26 28 21 21 25 29 38 50 49 36 26 41 30 35 41 48 24 53 31 43 47 48 43 51 51 53
34 33 40 27 27 22 25 25 28 23 21 17 16 22 32 32 36 35 23 21 26 21 22 34 35 38 34 15 40 39 38 36 36 46 44 55 56 38 46 51 54 56 57 58
40 40 34 36 30 27 24 25 28 29 27 23 20 25 34 36 31 29 23 26 27 28 25 28 42 41 49 33 32 33 40 37 37 41 44 50 53 61 55 55 57 59 60 62
39 43 40 32 37 29 26 26 26 28 26 31 29 25 32 28 30 35 29 36 33 29 30 33 35 41 42 41 42 40 41 40 44 45 46 49 52 52 56 59 59 60 62 65
45 37 39 42 41 28 30 24 27 21 29 25 22 32 36 38 40 41 38 39 34 33 32 36 38 37 40 44 41 42 43 45 47 47 49 50 52 55 58 59 60 62 64 64
46 39 38 35 34 41 39 25 26 22 21 22 30 38 44 43 42 40 40 36 36 34 32 32 34 36 37 38 42 44 45 46 47 49 51 53 56 58 59 59 61 62 62 62
36 36 38 35 32 31 33 29 31 31 31 28 38 44 45 45 38 40 37 37 38 39 36 34 34 35 36 39 41 43 44 46 48 50 53 55 57 58 58 60 60 59 60 60
27 31 39 39 36 32 31 28 38 33 39 34 46 48 49 36 36 41 38 40 39 36 36 36 36 35 37 39 41 43 45 47 48 51 53 54 55 56 57 57 57 57 56 53
38 34 37 41 36 38 32 33 36 38 38 40 46 49 46 40 33 39 42 41 40 38 37 37 37 39 41 43 44 46 47 48 50 52 52 54 55 56 55 55 53 51 47 46
51 47 35 35 34 33 34 39 41 39 36 40 44 44 36 36 40 44 40 39 39 40 40 41 42 43 42 44 46 47 49 51 51 52 53 54 54 52 49 47 45 45 44 43
38 37 39 37 33 33 43 41 45 46 43 39 38 43 38 42 47 45 42 40 41 40 42 45 46 45 45 46 48 50 51 50 51 52 52 51 50 45 42 44 43 41 42 43
36 31 35 37 45 48 49 52 49 47 45 41 46 40 45 50 47 44 43 42 41 43 44 44 45 46 47 49 49 51 49 50 51 49 48 45 40 39 40 42 41 41 42 43
46 43 35 41 50 54 54 46 47 45 39 41 42 47 51 51 47 45 43 44 45 45 45 44 45 47 48 49 48 47 49 47 46 44 41 37 37 39 40 42 43 43 45 44
48 61 51 58 46 37 38 46 47 47 48 51 53 54 54 51 48 45 45 47 45 43 43 45 46 48 48 45 49 45 43 43 39 37 36 36 39 40 42 43 44 45 45 46
Wind_Direction
165 160 142 113 120 241 170 153 229 237 218 125 276 277 306 346 27 56 55 50 52 58 56 47 42 38 37 37 43 41 41 44 39 32 28 25 12 5 345 319 296 298 290 300
167 154 144 140 245 231 161 164 214 218 247 135 243 282 299 348 334 355 3 16 27 31 41 45 37 29 23 21 26 37 43 37 31 31 29 16 347 320 312 334 343 337 311 307
177 160 176 194 209 180 177 148 214 238 274 155 195 257 269 294 325 303 329 317 341 16 16 10 12 16 13 8 3 2 1 357 359 359 360 353 334 327 304 358 324 333 304 310
191 172 235 206 192 179 175 177 204 242 241 238 291 243 261 282 311 314 333 335 347 332 342 348 347 351 349 354 349 339 330 332 333 335 337 338 332 325 329 338 337 323 317 322
195 205 191 201 203 161 148 192 231 223 219 225 225 250 267 273 295 299 303 327 331 343 335 317 319 333 340 333 327 325 319 314 315 323 325 324 321 315 320 329 328 326 323 319
211 214 208 199 198 184 198 233 230 231 224 234 224 247 256 267 285 267 272 308 312 316 321 306 291 310 314 317 319 317 320 321 324 328 324 321 322 328 330 330 328 325 320 314
222 214 225 212 204 210 209 210 201 209 238 240 241 237 263 276 224 226 278 284 289 292 301 298 299 304 305 307 310 311 316 323 325 324 323 324 327 327 325 322 319 318 319 318
225 222 224 228 213 224 209 195 164 205 282 273 239 216 221 244 246 253 261 263 281 284 272 295 291 283 289 295 300 302 307 312 310 307 308 313 317 315 313 313 311 310 308 305
228 226 246 233 219 210 213 206 167 248 252 230 262 242 253 255 254 266 266 244 247 277 280 263 294 297 289 291 287 288 296 296 294 295 299 304 304 303 306 307 303 299 300 298
201 240 226 256 227 213 207 251 205 223 217 227 243 260 267 274 285 266 283 265 244 246 271 276 284 295 304 285 286 292 293 291 290 290 295 301 303 307 306 307 306 308 307 306
202 204 221 236 237 219 214 213 212 208 193 227 253 231 233 255 273 285 292 273 268 259 255 272 281 285 293 281 266 291 299 305 305 302 303 303 303 306 303 305 304 308 309 309
212 209 192 225 232 232 211 226 217 208 221 213 219 273 253 252 261 275 282 279 276 271 265 256 265 273 260 234 265 314 303 334 308 297 288 306 287 306 304 310 305 308 305 307
217 213 212 200 229 241 221 219 231 223 201 216 230 255 267 268 274 274 280 284 278 278 280 269 272 273 315 279 206 305 304 304 300 311 227 326 293 303 307 309 304 301 307 308
207 223 217 216 214 238 245 219 222 233 232 219 238 255 269 280 273 279 286 277 284 286 281 282 283 290 301 291 293 301 306 301 294 295 300 304 299 285 305 305 309 308 307 308
216 216 220 211 202 227 245 245 226 216 213 229 233 233 236 248 269 276 274 291 286 284 283 281 286 295 294 269 302 302 290 292 291 295 293 292 295 301 305 308 305 305 306 305
234 219 218 219 199 203 231 246 247 226 226 223 216 255 256 259 262 271 284 286 285 285 287 282 282 289 292 302 295 295 294 294 293 296 296 298 299 303 300 301 303 303 304 305
231 224 224 227 205 213 216 216 238 233 226 229 228 241 261 266 267 272 280 280 285 289 286 288 291 291 294 296 298 294 291 291 290 290 292 296 298 298 298 300 302 303 304 305
242 230 225 225 222 213 218 226 215 225 223 230 234 235 246 252 256 267 271 282 293 291 283 282 284 284 287 288 286 286 286 288 290 292 296 297 298 297 299 301 301 302 303 304
239 225 223 216 224 231 220 222 226 223 232 227 241 245 244 251 264 269 279 288 290 291 290 287 285 286 285 284 285 287 289 290 292 294 294 295 296 297 300 301 301 302 304 305
216 234 223 221 215 227 228 227 236 245 238 221 234 240 255 264 268 277 283 284 287 288 289 289 290 289 288 287 287 288 288 290 293 294 294 295 298 300 300 301 303 304 304 304
207 211 233 229 228 225 223 220 238 231 237 240 245 253 261 266 276 281 285 292 292 292 291 291 292 291 291 291 291 292 294 295 295 296 297 300 301 300 302 304 304 305 305 305
230 220 217 231 229 220 234 230 241 249 241 235 243 253 259 285 287 286 290 289 290 291 293 293 291 291 293 293 294 296 295 295 297 299 301 301 301 303 303 301 304 304 303 303
238 236 235 227 238 229 235 236 238 244 246 246 252 261 276 280 279 286 289 289 288 290 290 290 292 294 295 294 293 294 295 299 300 302 302 302 302 302 303 303 306 307 306 306
240 239 226 224 230 233 224 233 246 254 254 256 262 275 276 281 284 287 285 286 289 287 287 290 291 291 293 292 293 296 300 300 302 301 300 301 302 304 305 305 306 306 304 304
231 231 217 230 237 229 232 239 243 250 261 265 269 271 277 279 281 283 284 286 286 288 291 291 291 290 292 295 297 300 301 302 302 301 302 304 305 306 306 305 304 303 303 302
217 222 233 229 226 221 244 242 245 252 258 263 266 271 274 275 278 282 283 285 288 290 289 288 289 292 294 297 300 303 303 302 302 302 303 304 306 305 304 303 302 302 302 301